Lapse_Rate
6.4 6.4 6.4 6.3 6.3 6.3 6.4 6.4 6.3 6.3 6.3 6.3 6.5 6.4 6.6 6.7 6.9 6.9 7.0 7.1 7.0 6.9 6.9 7.0 6.9 7.0 7.0 6.7 7.1 7.9 8.3 9.3 9.6 9.6 9.7 8.6 8.5 8.1 7.9 7.8 7.7 7.7 7.6 7.2 7.5
6.3 6.2 6.2 6.3 6.2 6.3 6.4 6.4 6.3 6.3 6.3 6.3 6.4 6.3 6.5 6.6 6.8 6.9 6.9 6.9 6.9 6.8 6.8 6.9 6.9 6.9 6.7 7.0 7.4 7.6 8.4 9.3 9.6 9.6 9.6 9.2 8.8 8.3 7.9 7.9 7.8 7.3 7.0 7.7 7.5
6.2 6.2 6.2 6.2 6.2 6.3 6.3 6.3 6.3 6.3 6.2 6.2 6.3 6.3 6.4 6.6 6.7 6.3 6.7 6.7 6.8 6.7 6.8 6.2 6.5 6.6 7.0 7.4 7.6 7.8 8.3 9.6 9.6 9.6 9.6 9.5 8.5 8.7 8.1 8.3 8.0 7.6 7.0 7.7 7.4
6.2 6.3 6.3 6.2 6.3 6.4 6.4 6.4 6.5 6.4 6.4 6.3 6.3 6.2 6.4 6.4 6.6 6.6 6.5 6.6 6.7 6.7 6.8 6.7 6.4 6.8 7.4 7.7 8.0 8.0 8.4 8.9 9.6 9.6 8.9 8.7 8.8 8.4 8.4 8.1 8.1 7.8 7.0 7.5 7.0
6.2 6.3 6.3 6.4 6.5 6.5 6.5 6.6 6.6 6.6 6.5 6.4 6.4 6.3 6.4 6.4 6.0 6.5 6.5 6.4 6.5 6.7 6.8 6.5 6.6 7.0 7.5 8.0 8.0 8.0 8.4 8.9 8.8 8.6 8.5 8.7 8.5 8.8 8.7 8.8 8.4 8.0 7.0 6.8 6.8
6.2 6.3 6.4 6.4 6.5 6.5 6.5 6.6 6.7 6.7 6.6 6.6 6.5 6.4 6.4 6.1 6.3 6.5 6.7 6.6 6.5 6.5 6.2 6.5 6.9 7.1 7.6 8.0 8.1 8.4 8.3 8.7 8.7 8.7 8.5 8.3 8.5 8.6 8.9 8.5 8.2 8.1 7.3 7.0 7.0
6.5 6.5 6.5 6.6 6.6 6.6 6.7 6.8 6.8 6.8 6.7 6.7 6.6 6.5 6.5 6.0 6.6 6.6 6.6 6.6 6.5 6.2 6.1 6.3 6.8 6.9 7.3 7.9 7.9 8.0 8.1 8.5 8.6 8.7 8.8 8.5 8.5 8.5 9.0 8.9 8.0 8.0 7.6 7.3 7.2
6.6 6.7 6.8 6.8 6.8 6.8 6.9 6.9 6.9 6.9 6.8 6.8 6.8 6.7 6.3 6.7 6.6 6.6 6.6 6.5 6.5 6.6 6.8 6.3 6.9 7.0 7.4 7.8 7.9 8.0 8.4 8.9 9.0 8.8 8.6 8.3 8.8 8.9 8.7 8.5 8.0 7.7 7.7 7.7 7.5
6.7 6.8 6.9 6.9 6.9 7.0 7.0 7.1 7.2 7.1 6.9 6.8 6.8 6.6 6.1 6.7 6.7 6.7 6.6 6.0 6.5 6.6 6.8 7.0 6.7 7.1 7.6 7.8 8.3 8.4 9.3 9.3 9.6 9.4 8.5 8.2 8.6 9.3 9.6 8.5 8.1 7.9 7.9 7.9 7.6
6.7 6.8 7.0 7.0 7.0 7.1 7.1 7.1 7.0 7.1 7.0 6.9 6.9 6.7 6.7 6.4 6.4 6.8 6.7 6.4 6.2 6.5 6.4 6.6 6.9 7.4 7.8 8.4 9.5 9.7 9.4 9.6 9.7 9.6 8.5 8.8 8.4 9.5 9.1 8.2 8.3 8.1 7.9 7.8 7.5
6.9 7.0 7.1 7.1 7.1 7.1 7.3 7.1 7.0 7.0 7.2 6.9 6.7 7.0 6.5 6.5 6.9 6.8 6.8 6.5 6.4 6.5 7.1 7.0 7.5 8.1 9.1 8.9 9.3 8.7 9.2 9.7 9.7 9.6 8.7 8.6 9.1 8.8 8.9 8.0 8.2 8.1 8.0 7.8 7.4
7.1 7.2 7.1 7.1 7.2 7.2 7.2 7.1 7.3 7.2 6.8 7.0 7.2 7.0 7.2 7.1 6.6 6.6 6.8 6.7 6.9 7.4 7.7 7.7 8.1 9.0 7.9 7.9 8.0 8.4 8.7 9.0 9.6 9.0 8.4 9.3 8.9 9.6 9.6 8.4 8.2 8.3 8.2 8.0 7.5
7.1 7.1 6.9 7.0 7.1 7.2 7.3 7.2 7.3 7.2 6.9 6.9 7.0 6.8 6.9 7.2 7.1 7.1 6.9 7.2 7.5 7.8 8.1 8.3 9.6 7.6 7.8 8.0 8.0 8.3 8.7 9.5 9.6 9.7 8.5 8.8 9.5 9.5 9.6 9.3 8.3 8.2 8.3 8.2 7.6
6.9 6.9 6.9 7.0 7.1 7.2 7.4 7.3 7.4 7.5 7.5 7.5 7.5 7.4 7.2 7.2 7.4 7.4 7.3 7.7 8.0 8.4 8.5 8.6 9.1 7.9 8.1 8.2 8.2 8.7 9.3 8.6 8.8 9.4 9.6 9.3 9.7 9.6 9.6 9.5 9.0 8.4 8.3 8.4 8.1
6.9 6.9 7.0 7.0 7.1 7.3 7.4 7.4 7.6 7.6 9.3 7.7 7.8 7.7 7.7 7.8 8.0 7.9 7.8 8.0 8.4 8.7 8.6 9.6 8.5 8.4 8.5 8.7 8.6 9.5 8.4 8.3 8.6 8.8 9.3 9.6 9.6 9.6 9.7 9.6 9.5 9.4 9.0 8.5 8.3
6.8 6.9 7.1 7.0 7.0 7.2 7.4 7.5 7.7 7.8 9.1 8.1 7.9 8.1 8.3 8.3 8.2 8.1 8.0 8.0 8.6 8.7 8.6 9.1 8.7 8.5 8.7 8.6 8.3 8.6 8.3 8.5 8.6 9.1 9.8 9.6 9.6 9.6 9.6 9.7 9.5 9.5 9.5 8.8 8.2
6.8 6.9 6.9 6.9 6.7 7.0 7.3 7.5 7.5 8.9 7.9 8.0 8.2 8.2 8.5 8.5 8.5 8.4 8.3 8.4 9.0 9.2 9.0 9.3 9.0 8.8 8.4 8.7 8.8 8.6 8.7 9.5 9.7 9.7 9.9 9.6 9.6 9.6 9.7 9.7 9.6 9.6 9.6 8.8 8.1
6.7 6.8 6.8 6.8 6.9 6.9 7.0 6.7 8.1 8.1 8.3 7.7 7.8 8.1 8.5 8.4 8.6 8.8 9.1 9.5 8.5 8.5 9.3 9.5 9.7 9.5 9.4 8.9 9.5 9.4 9.4 9.6 9.4 9.7 10.1 9.8 9.7 9.6 9.7 9.6 9.6 9.7 9.6 9.0 8.2
6.6 6.7 6.8 6.7 6.7 6.7 6.8 7.4 8.6 8.0 7.7 8.0 8.1 8.4 8.4 8.3 8.4 8.6 9.0 9.2 8.1 8.2 8.8 9.2 9.6 9.3 9.2 8.9 9.1 9.5 9.5 9.5 9.6 9.6 9.7 9.6 9.9 9.7 9.6 9.6 9.6 9.6 9.6 8.9 8.6
6.4 6.4 6.5 6.6 6.7 6.7 6.5 7.3 7.2 6.9 7.0 7.6 8.5 8.3 9.0 8.4 8.5 8.6 9.1 7.7 7.8 7.9 8.2 9.1 8.8 9.5 9.4 9.0 9.1 9.2 9.5 9.4 9.5 9.5 9.5 9.7 9.7 9.8 9.8 9.6 9.5 9.6 9.3 9.2 8.7
6.2 5.9 6.3 6.4 6.5 6.4 7.0 7.4 6.9 6.6 6.9 7.3 8.0 8.1 8.4 8.3 8.3 8.7 9.3 7.4 7.2 7.6 7.9 8.3 8.3 9.1 9.3 9.5 9.3 9.1 9.2 9.1 8.8 9.4 9.8 9.7 9.7 9.3 8.8 9.2 9.4 9.1 9.5 8.9 7.4
6.3 6.0 6.4 6.3 6.0 6.6 7.2 6.7 6.6 6.6 6.5 6.9 7.0 7.5 7.8 7.8 8.0 8.2 8.3 7.7 7.4 7.2 7.9 7.9 7.7 8.3 9.0 9.5 9.0 8.7 8.9 9.1 9.4 9.4 9.2 8.7 9.2 9.6 9.3 9.5 9.5 9.0 9.4 8.2 7.5
6.2 6.0 6.3 6.3 6.6 6.9 6.4 6.2 6.2 6.3 6.6 6.8 7.0 7.0 7.0 7.4 7.5 7.9 7.9 7.0 7.3 7.0 7.4 7.4 7.9 8.3 8.8 9.0 8.9 8.6 9.0 8.5 8.5 8.3 8.6 9.1 9.1 9.6 8.5 8.5 9.1 8.7 8.2 8.2 6.0
6.1 6.0 5.9 6.1 6.2 6.4 6.2 6.5 6.4 6.5 6.3 6.6 6.8 6.6 7.0 7.2 7.3 7.5 7.5 7.0 6.9 7.0 7.3 7.3 7.2 7.8 8.7 9.2 8.7 8.8 8.9 8.6 8.6 8.5 8.9 9.4 9.4 9.3 9.2 8.9 8.9 8.5 7.2 8.0 8.3
5.7 5.5 6.0 6.2 5.7 5.7 5.9 6.0 6.5 6.3 6.1 6.2 6.5 6.7 7.0 7.2 7.5 7.6 7.4 7.4 6.7 6.6 6.8 6.5 7.0 7.6 7.9 8.0 8.2 8.2 8.2 8.3 8.4 8.5 8.6 8.8 8.7 8.9 9.0 8.7 8.5 8.3 7.2 6.9 7.5
5.3 5.4 5.4 5.3 5.8 5.9 5.6 6.2 6.3 6.3 6.0 6.3 6.2 6.6 6.5 6.6 7.0 7.4 7.0 6.9 6.8 7.0 6.6 6.5 6.6 7.1 7.3 7.6 7.7 7.8 7.9 8.0 8.2 8.4 8.5 8.6 8.4 8.6 8.8 8.5 7.7 7.0 6.9 6.8 7.2
5.4 5.3 5.3 5.0 5.5 5.6 6.1 6.0 5.9 5.8 5.6 6.1 5.8 6.0 6.1 6.2 6.2 6.3 6.4 6.5 6.2 6.3 6.6 6.4 6.6 7.0 7.4 7.8 7.9 7.9 7.9 8.1 8.2 8.6 8.6 8.6 8.7 8.7 8.5 7.8 7.2 6.9 6.6 6.4 7.2
Wind_Speed
16 15 16 16 16 16 16 16 16 16 17 16 16 14 15 14 16 11 10 1 5 2 5 14 17 18 16 17 18 10 13 14 14 11 4 12 9 7 4 5 5 6 2 21 19
16 16 16 17 17 16 16 15 16 16 16 16 17 14 14 13 12 13 5 7 1 8 12 14 16 16 15 17 15 14 13 19 13 2 10 14 6 13 7 8 9 10 18 20 20
17 17 17 18 18 17 17 17 17 18 16 16 16 15 12 13 10 9 5 4 6 11 17 12 11 14 18 15 18 17 18 16 8 6 10 6 6 10 9 13 13 13 19 19 19
19 19 20 19 19 19 19 19 19 18 17 17 15 14 11 11 2 8 3 9 11 13 14 12 11 14 17 20 18 18 18 20 16 3 10 8 3 8 10 5 16 16 19 19 19
20 20 21 20 20 19 20 19 19 19 18 16 13 10 9 8 1 9 8 11 12 12 14 14 13 13 16 17 16 21 19 16 18 5 10 12 7 10 13 5 4 20 19 19 18
21 23 23 22 21 20 20 19 18 19 18 14 10 6 9 10 4 6 8 11 9 12 11 13 10 13 13 16 16 13 19 19 14 13 10 11 12 9 11 15 9 18 18 18 18
22 23 24 24 23 21 20 18 17 18 16 13 10 6 10 4 2 8 12 7 6 6 7 9 5 5 12 10 13 16 13 16 12 13 14 10 15 12 13 17 13 15 17 18 18
24 24 24 25 24 22 19 17 15 11 5 8 11 10 1 4 4 8 6 5 5 3 6 4 8 13 11 4 4 14 15 16 19 16 8 10 17 18 17 13 16 17 16 15 18
25 25 25 25 24 21 18 16 8 6 5 9 8 8 7 5 10 11 8 7 5 3 4 4 10 14 11 11 13 13 15 18 20 17 13 15 18 19 22 16 16 16 15 16 16
27 26 26 26 25 20 18 9 6 7 9 8 7 7 8 4 6 5 9 4 6 7 9 10 8 10 12 13 13 9 16 15 8 15 11 17 16 15 5 11 15 16 16 15 15
28 28 27 27 25 18 11 5 5 6 13 6 5 3 3 4 6 10 12 10 7 11 12 13 10 11 16 11 10 11 13 11 9 2 4 14 15 18 15 12 15 17 16 16 14
29 29 28 28 26 19 8 3 6 6 3 4 1 3 1 3 6 10 13 11 10 13 10 6 12 5 5 5 8 12 13 13 9 4 11 15 16 16 15 14 15 15 16 18 18
30 29 28 27 24 9 6 6 6 4 7 7 4 3 1 10 7 14 15 14 9 12 9 15 5 9 6 10 11 13 14 12 13 8 11 15 13 14 13 11 14 15 16 18 20
30 29 27 25 7 1 2 5 6 2 5 7 6 5 9 4 6 1 13 11 8 12 11 9 2 5 11 10 10 12 14 10 12 12 12 19 13 17 20 18 17 17 18 18 18
30 28 25 10 9 2 7 7 5 3 5 3 5 4 5 7 5 10 10 10 15 7 7 6 6 10 11 11 8 7 3 7 10 12 14 16 9 15 9 13 13 17 20 19 18
31 27 22 5 5 5 7 4 4 7 3 6 2 2 10 3 6 5 9 9 9 9 10 13 5 5 12 0 7 12 6 13 12 13 14 18 17 14 13 17 13 14 17 18 18
32 25 10 8 5 9 7 5 6 6 3 5 3 4 1 1 5 6 10 13 9 9 13 16 14 13 7 11 14 12 11 10 12 12 13 17 17 16 5 6 10 10 13 20 19
34 21 9 5 8 7 6 8 6 6 0 3 4 4 6 4 3 6 8 8 2 10 13 11 7 4 5 11 12 12 12 11 15 11 12 7 6 11 11 11 11 8 12 9 16
37 5 5 2 6 6 7 8 4 2 4 3 7 9 8 5 6 4 5 9 6 6 9 7 5 5 2 8 10 13 10 13 13 15 12 12 11 6 11 11 12 13 14 13 14
6 5 2 6 4 7 7 9 1 3 3 5 11 3 5 5 8 6 11 3 1 4 6 5 11 3 3 7 14 12 12 8 9 14 16 15 12 10 8 8 5 12 12 13 18
5 5 6 5 5 7 9 3 3 4 4 3 2 4 3 3 6 4 1 8 2 4 8 7 8 15 7 12 5 5 12 7 9 11 11 12 8 14 5 12 9 12 17 13 13
5 4 4 5 7 4 5 1 3 5 4 5 5 6 5 0 6 5 4 3 4 6 8 6 6 11 16 17 6 9 16 17 10 14 8 13 14 12 5 13 8 11 11 11 18
6 5 3 4 6 7 3 4 2 5 4 3 5 4 2 4 4 6 4 10 4 5 8 7 5 9 15 17 13 10 13 4 9 9 16 15 12 8 9 19 25 21 22 17 27
5 3 4 2 3 8 2 9 8 2 3 5 5 2 6 9 8 5 6 7 1 3 4 4 9 12 13 17 14 10 5 10 11 9 13 15 21 17 18 8 21 14 14 20 22
2 3 4 2 4 5 4 5 9 7 7 5 6 9 8 9 10 11 10 7 6 7 8 4 12 15 16 18 15 17 17 17 18 18 17 18 20 17 18 19 21 19 20 21 22
5 4 1 5 5 7 4 7 10 4 3 6 7 5 5 9 11 14 8 2 9 5 6 3 9 10 16 16 18 20 21 21 22 21 21 19 20 17 17 11 16 19 20 18 21
3 2 4 1 5 7 7 5 3 3 4 8 6 6 9 4 9 9 9 11 12 9 9 9 10 10 16 15 16 18 16 20 19 19 17 17 17 13 9 10 13 17 13 16 18
Wind_Direction
347 345 338 332 329 327 324 320 318 315 308 310 309 307 307 310 298 226 249 326 198 218 247 196 207 221 231 238 233 246 264 255 250 238 153 121 178 173 177 123 190 84 114 137 149
342 340 333 331 328 324 316 315 311 304 300 305 302 305 309 312 278 251 116 114 90 223 223 184 200 211 220 225 223 238 238 251 277 235 258 124 232 146 176 194 159 132 110 136 152
338 336 335 332 325 319 318 316 307 299 300 298 297 300 300 295 269 99 69 139 190 210 248 223 217 207 225 222 218 225 249 256 278 281 283 96 190 139 213 179 170 162 139 152 160
336 336 334 329 325 322 320 310 302 296 298 291 290 291 291 258 345 96 338 209 197 215 231 234 235 213 228 222 228 234 242 262 284 138 259 250 237 178 215 300 147 152 150 160 166
331 333 331 328 325 320 312 305 300 298 291 283 278 279 270 223 95 116 134 139 181 209 222 215 223 228 233 234 224 230 249 233 255 281 257 252 226 262 189 165 242 144 158 169 174
333 333 332 326 324 319 310 305 301 293 279 268 259 256 244 246 74 138 139 165 194 219 219 219 225 231 262 262 241 225 239 258 256 232 232 250 232 228 235 145 202 155 173 175 178
334 331 327 328 323 318 314 309 298 286 269 251 226 227 258 20 96 146 164 190 193 247 243 239 283 244 221 256 254 251 267 234 243 238 245 228 247 217 240 170 178 171 182 176 185
335 331 328 325 322 320 315 306 296 281 252 202 199 237 29 119 160 179 178 167 187 227 284 240 235 245 264 264 242 235 235 244 218 219 211 218 242 207 223 207 181 187 187 186 186
332 328 326 323 321 320 309 303 280 228 212 178 212 232 128 139 201 196 212 178 186 201 218 213 217 232 198 236 224 209 244 218 263 171 230 205 249 251 198 182 204 190 201 193 183
329 329 328 323 320 314 303 281 189 207 211 218 275 237 172 153 117 166 184 204 189 177 170 200 218 222 227 218 232 241 207 252 229 183 205 234 234 253 158 183 215 194 203 190 188
331 331 328 322 315 306 293 186 209 191 217 22 29 304 147 144 174 202 179 207 186 204 214 215 230 220 223 215 307 307 310 287 198 22 242 231 247 240 171 215 215 206 199 191 184
333 330 327 319 312 305 272 26 43 347 245 135 101 217 233 274 195 167 182 206 203 229 212 197 235 264 342 305 256 255 256 255 271 145 251 243 233 227 216 199 220 221 206 198 191
330 327 324 318 318 296 50 42 325 309 255 143 100 33 100 192 225 166 199 222 211 240 201 266 29 64 252 227 244 239 256 252 254 169 242 265 261 237 226 198 210 227 226 213 195
327 327 324 318 302 24 116 330 314 319 253 130 167 106 152 194 213 173 197 226 232 258 228 259 40 200 241 253 229 260 210 241 273 253 252 203 251 216 221 224 216 222 225 227 203
328 325 319 316 320 311 343 317 332 235 234 94 92 107 150 237 117 176 221 236 264 219 262 192 190 217 231 236 205 277 57 254 261 250 251 252 241 280 297 205 220 219 220 218 216
329 328 323 218 241 12 324 326 245 231 131 135 193 266 184 187 183 108 189 244 289 273 230 287 161 281 275 79 235 288 248 249 243 250 241 240 261 261 242 221 221 228 235 201 206
329 326 303 298 348 339 323 250 243 267 165 149 155 235 344 245 149 210 175 206 244 220 231 216 231 211 229 254 224 223 249 257 226 222 234 236 223 233 295 253 210 246 253 194 176
323 319 207 290 315 323 288 256 263 58 255 122 231 212 243 286 153 182 203 185 202 317 290 284 202 199 173 257 314 196 239 258 291 289 316 117 223 240 250 257 298 298 295 314 167
315 199 237 32 320 296 272 244 333 64 46 244 182 230 175 197 277 257 360 18 45 343 314 324 173 150 224 290 284 279 228 261 282 277 274 280 262 247 217 222 233 247 240 221 214
317 274 111 317 299 273 253 262 42 42 294 244 259 273 229 149 243 221 162 69 258 342 317 4 298 294 339 290 251 258 306 280 231 256 268 274 258 282 148 178 308 342 313 223 213
272 268 80 321 259 245 249 63 147 105 285 275 292 239 260 219 278 248 301 105 310 311 301 316 270 283 208 254 288 238 244 247 339 296 294 289 268 59 190 302 4 330 326 18 333
285 270 47 316 248 237 269 140 4 160 217 228 294 303 270 192 270 255 267 68 5 310 289 58 304 285 284 309 318 283 286 295 294 285 335 319 291 320 292 286 289 298 352 90 92
305 297 90 282 263 215 93 180 232 198 199 217 233 264 174 254 264 252 243 102 15 325 349 1 245 267 256 240 224 245 251 300 299 300 282 289 272 337 46 349 306 27 356 344 196
287 270 156 233 325 307 198 217 184 250 233 262 295 269 243 245 224 267 227 148 280 305 42 318 265 262 277 306 327 291 266 271 285 277 279 278 297 310 309 287 308 9 327 345 330
279 70 354 320 97 322 280 326 252 185 250 238 215 252 254 253 251 232 240 239 217 156 230 253 268 266 263 270 287 285 279 278 270 264 264 280 288 299 309 317 321 344 351 341 320
319 337 307 281 287 267 190 244 257 195 256 223 252 290 261 261 272 290 345 262 266 188 237 226 271 281 277 277 273 271 268 265 263 266 270 274 274 283 285 342 348 353 328 341 333
15 224 281 150 227 254 250 238 253 322 180 284 314 290 242 295 345 342 321 303 288 285 271 263 267 265 266 270 271 260 256 256 260 264 264 264 277 291 314 345 342 325 357 347 336